This is the latest recevied weather packets stored in our database for station/object BARLOW-WX. If no packets are shown the sender has not sent any weather packets the latest 10 day(s).
| Time | Temp. | Humidity | Pressure | Rain* | Wind** | Luminosity | Snow |
|---|---|---|---|---|---|---|---|
| 1777319179 | 18.89° C | 48% | 981.3 hPa | 0 mm | - | - | - |
| 1777318293 | 18.33° C | 48% | 981.3 hPa | 0 mm | - | - | - |
| 1777317379 | 21.11° C | 48% | 981.5 hPa | 0 mm | - | - | - |
| 1777316501 | 21.67° C | 48% | 981.5 hPa | 0 mm | - | - | - |
| 1777315579 | 21.67° C | 49% | 985 hPa | 0 mm | - | - | - |
| 1777314691 | 21.67° C | 49% | 983.5 hPa | 0 mm | - | - | - |
| 1777313779 | 22.22° C | 49% | 983.5 hPa | 0 mm | - | - | - |
| 1777312907 | 21.11° C | 49% | 983.5 hPa | 0 mm | - | - | - |
| 1777311977 | 21.67° C | 53% | 985.8 hPa | 0 mm | - | - | - |
| 1777311095 | 21.11° C | 53% | 985.3 hPa | 0 mm | - | - | - |
| 1777310177 | 20.56° C | 53% | 985.3 hPa | 0 mm | - | - | - |
| 1777309300 | 20° C | 53% | 985.3 hPa | 0 mm | - | - | - |
| 1777308375 | 20° C | 55% | 986.1 hPa | 0 mm | - | - | - |
| 1777307495 | 19.44° C | 55% | 986 hPa | 0 mm | - | - | - |
| 1777306577 | 18.89° C | 55% | 986 hPa | 0 mm | - | - | - |
| 1777305704 | 18.33° C | 55% | 986 hPa | 0 mm | - | - | - |
| 1777304777 | 17.78° C | 61% | 986.7 hPa | 0 mm | - | - | - |
| 1777303891 | 17.22° C | 59% | 986.3 hPa | 0 mm | - | - | - |
| 1777302976 | 16.67° C | 59% | 986.3 hPa | 0 mm | - | - | - |
| 1777302102 | 16.11° C | 59% | 986.3 hPa | 0 mm | - | - | - |
| 1777301176 | 15.56° C | 67% | 986.3 hPa | 0 mm | - | - | - |
| 1777300297 | 15° C | 68% | 987.3 hPa | 0 mm | - | - | - |
| 1777299375 | 13.89° C | 68% | 987.3 hPa | 0 mm | - | - | - |
| 1777298515 | 13.89° C | 68% | 987.3 hPa | 0 mm | - | - | - |
| 1777297575 | 13.33° C | 75% | 987.8 hPa | 0 mm | - | - | - |
* Rain latest hour (hover to see other rain measurements)
** Current wind speed in m/s (hover to see current wind gust speed)